Погода Туапсе

Погода Туапсе : погода сейчас, прогноз погоды и архив. Всё, что Вы хотите узнать о погоде Туапсе!

Хотите узнать прогноз погоды Туапсе? Тогда Вам сюда: Погода Туапсе

Поиск расширенной информации на нашем сайте:

Другие новости

Новости СМИ2

Главная страница сайта

Новости сайта

03.07.2017

Напоминаем, что на нашем специализированном сайте Метеоцентр.Азия вы можете получить высокодетализированные автоматические прогнозы погоды по пунктам России, СНГ и мира в авиационном формате (включающие направление и скорость ветра, видимость, явления погоды, количество и форму облачности, нижнюю и верхнюю границу облачности).


Погода Туапсе - сегодня

Время (UTC), дата Ветер
(°,м/с) 
Видим.   Явления Облачность Т
(°С)
Тd
(°С)
f(%) Тe
(°С)
Pmin
(гПа)
dP
(гПа)
Po
(мм)
O2
(г/м3)
Тmin Tmax R s Состояние
почвы
09 17.10.17 270 (З) 20000 м    10/8 1000 м кучево-дожд., верхняя 
[Cb cap|Ci sp]
+15.8 +8.8 63 +17  1025.1  0.2  763  289           
12 17.10.17 240 (ЮЗ) 5{11}  20000 м    10/8 1000 м кучево-дожд., верхняя 
[Cb cap|Ci sp]
+16.5 +10.1 66 +17  1024.7  -0.4  763  288           
15 17.10.17 210 (ЮЗ) 2{10}  10 км    10/8 1000 м кучево-дожд., верхняя 
[Cb cap|Ci sp]
+15.2 +10.8 75 +18  1025  0.3  763  289    +17.4       
18 17.10.17 210 (ЮЗ) 10 км  {ливн. осадки}  10/8 1000 м кучево-дожд., верхняя 
[Cb cap|Ci sp]
+15.3 +10.3 72 +17  1025.5  0.5  764  290           
21 17.10.17 120 (ЮВ) 10 км    10/10 1000 м кучево-дожд. 
[Cb cap]
+15.5 +7.9 61 +15  1025.2  -0.3  763  290           
00 18.10.17 120 (ЮВ) 10 км  в посл. час гроза{дождь}  10/3 1000 м средняя, верхняя 
[Sc|Ac inh|Cs]
+15.5 +8.9 65 +15  1025.3  0.1             
03 18.10.17 120 (ЮВ) 3{10}  10 км    10/10 1000 м 
[Sc diur, vesp]
+15.2 +9.5 69 +15  1025.2  -0.1  763  290  +14.9    0.0    влажная 
06 18.10.17 110 (В) 20000 м  в посл. час ливневой дождь  10/9 600 м кучево-дожд., средняя 
[Cb cap|Ac As]
+15.4 +9.3 67 +16  1025.7  0.5  764  290           
09 18.10.17 130 (ЮВ) 20000 м  {ливн. осадки}  10/9 1000 м кучево-дожд., средняя 
[Cb cap|Ac As]
+16.3 +10.7 69 +19  1025.1  -0.5  763  288           
12 18.10.17 140 (ЮВ) 10 км  {ливн. осадки}  10/8 600 м кучево-дожд., средняя, верхняя 
[Cb cap|Ac trans|Ci sp]
+16.2 +11.8 75 +20  1024.3  -0.9  763  288           
15 18.10.17 070 (В) 10 км  {ливн. осадки}  10/8 1000 м кучево-дожд., средняя 
[Cb cap|Ac As]
+15.4 +10.7 74 +18  1024  -0.3  762  289    +16.9  0.1     
18 18.10.17 070 (В) 10 км  {ливн. осадки}  10/10 600 м кучево-дожд. 
[Cb cap]
+15.2 +9.1 67 +16  1024.1  0.1  763  289           
21 18.10.17 030 (СВ) 10 км    8/5 1000 м верхняя 
[Cu Sc|Ci sp]
+13.3 +8.5 73 +15  1023.6  -0.6  762  291           
00 19.10.17 020 (С) 10 км    4/3 1000 м верхняя 
[Cu Sc|Ci sp]
+11.4 +8.6 83 +13  1023.2  -0.5  762  293           
03 19.10.17 360 (С) 10 км    3/3 1000 м 
[Sc]
+11.6 +7.5 76 +12  1022.6  -0.6  761  293  +10.7    0.0    влажная 
06 19.10.17 тихо ()   20000 м    ясно 
+16.3 +8.9 62 +16  1022.4  761  288  +10.4         
09 19.10.17 230 (ЮЗ) 20000 м    ясно 
+21 +8.3 44 +21  1021.7  -0.6  761  283           
12 19.10.17 230 (ЮЗ) 20000 м    ясно 
+21.5 +8.5 43 +22  1020.8  -0.9  760  283           
15 19.10.17 360 (С) 10 км    ясно 
+16 +8.6 61 +17  1020.3  -0.6  760  288    +21.9       
18 19.10.17 030 (СВ) 10 км    ясно 
+12.6 +7.5 71 +13  1020  -0.4  759  291           
21 19.10.17 040 (СВ) 10 км    ясно 
+11.5 +7 74 +12  1019.6  -0.5  759  292           
00 20.10.17 050 (СВ) 10 км    ясно 
+10.4 +6.6 77 +11  1019.2  -0.4  759  293           
03 20.10.17 040 (СВ) 10 км    ясно 
+9.9 +6.3 78 +10  1019  -0.2  759  294  +9.8        влажная 
06 20.10.17 060 (СВ) 20000 м    ясно 
+14.7 +6.7 59 +16  1019.2  0.3  759  289  +9.7         
09 20.10.17 230 (ЮЗ) 20000 м    6/0 верхняя 
[Cs]
+20.8 +10.8 53 +23  1019.2  0.1  759  282           
Время (UTC), дата Ветер
(°,м/с) 
Видим.   Явления Облачность Т
(°С)
Тd
(°С)
f(%) Тe
(°С)
Pmin
(гПа)
dP
(гПа)
Po
(мм)
O2
(г/м3)
Тmin Tmax R s Состояние
почвы

Для получения пояснительной информации подведите курсор к названию столбца.

ПОГОДА Туапсе - архив

Всё, что Вы хотите узнать о погоде Туапсе - удобно и подробно!

Выберите нужную дату (начиная с 1 января 2015* года) и нажмите кнопку "Найти".
Будут отображены архивные сводки погоды по пункту Туапсе, начиная с указанной даты.


Отображать данные в формате CSV (для использования в таблицах Excel)


Внимание! Наш архив погоды предназначен исключительно для личного некоммерческого использования в познавательных целях. Если Вам необходимы официальные справки о состоянии погоды (для производственных, юридических, коммерческих и т.п. целей), обращайтесь в органы Росгидромета.

*Примечание: данная дата относится к архиву по метеостанциям СССР (Россия, СНГ, Балтия).
Архив по метеостанциям Зарубежной Европы и Азии (кроме Китая) хранится 10 дней, по другим регионам земного шара (Китай, Африка, Америка, Австралия, Океания) - 1 день.

Туапсе - район местоположения метеостанции


Название, широта, долгота, высота метеостанции:
Туапсе 44.1°ш. 39.1°д. 61 м над ур. моря [Российская Федерация]

Дополнительная информация

В oтличие oт бoльшинства пoгoдных сайтoв мы публикуем пoдрoбную метеoинфoрмацию в детальнoм прoфессиoнальнoм фoрмате.

Характеристики температуры и влажнoсти вoздуха измеряются на высoте 2 м в тени вдали oт зданий и деревьев.
Скoрoсть ветра измеряется на высoте 10 м (на урoвне рoста челoвека скoрoсть ветра ниже в 1.5-2 раза). Если метеoстанция нахoдится в гoрoде или в лесу, тo скoрoсть ветра занижена на 2-4 м/с пo сравнению с oткрытым местoм. Скoрoсть ветра над акватoриями крупных рек и oзёр, а также на вершинах хoлмoв на 2-5 м/с выше, чем в oбычных услoвиях.
Атмoсфернoе давление в разных тoчках местнoсти мoжет значительнo oтличаться oт давления на метеoстанции, в зависимoсти oт услoвий рельефа (при пoдъёме на 10 м давление пoнижается примернo на 1 мм рт.ст.).